When you browse on this site, cookies collect data to enhance your experience and personalize the content and advertising you see.
Visit our Privacy Policy to learn more. By continuing to use the site, you agree to this use of cookies and data.

Hourly Weather Franceville

Today, 10 July, Friday

Time Temperature Precipitation Wind Pressure Humidity
00:00 +26°C° 1.5 mm 1 mps 731 mmHg 88%
01:00 +25°C° 1.5 mm 2 mps 731 mmHg 88%
02:00 +25°C° 0.5 mm 1 mps 731 mmHg 90%
03:00 +25°C° 0.5 mm 1 mps 731 mmHg 92%
04:00 +24°C° 0.5 mm 1 mps 731 mmHg 94%
05:00 +24°C° 0.4 mm 1 mps 731 mmHg 93%
06:00 +24°C° 0.4 mm 1 mps 732 mmHg 93%
07:00 +24°C° 0.4 mm 1 mps 732 mmHg 92%
08:00 +25°C° 0 mm 1 mps 732 mmHg 89%
09:00 +26°C° 0 mm 1 mps 732 mmHg 85%
10:00 +26°C° 0 mm 2 mps 733 mmHg 81%
11:00 +27°C° 0.1 mm 2 mps 732 mmHg 76%
12:00 +28°C° 0.1 mm 1 mps 732 mmHg 71%
13:00 +29°C° 0.1 mm 1 mps 732 mmHg 66%
14:00 +30°C° 0 mm 1 mps 731 mmHg 65%
15:00 +30°C° 0 mm 1 mps 730 mmHg 64%
16:00 +30°C° 0 mm 2 mps 730 mmHg 62%
17:00 +29°C° 0 mm 1 mps 730 mmHg 67%
18:00 +28°C° 0 mm 1 mps 730 mmHg 71%
19:00 +27°C° 0 mm 1 mps 731 mmHg 76%
20:00 +27°C° 0 mm 1 mps 731 mmHg 77%
21:00 +26°C° 0 mm 1 mps 732 mmHg 78%
22:00 +26°C° 0 mm 1 mps 732 mmHg 79%
23:00 +25°C° 0 mm 1 mps 732 mmHg 81%

Tomorrow, 11 July, Saturday

Time Temperature Precipitation Wind Pressure Humidity
00:00 +25°C° 0 mm 1 mps 732 mmHg 83%
01:00 +24°C° 0 mm 1 mps 732 mmHg 85%
02:00 +24°C° 0 mm 1 mps 732 mmHg 85%
03:00 +24°C° 0 mm 1 mps 731 mmHg 86%
04:00 +24°C° 0 mm 1 mps 731 mmHg 87%
05:00 +24°C° 0 mm 1 mps 731 mmHg 87%
06:00 +24°C° 0 mm 1 mps 732 mmHg 87%
07:00 +24°C° 0 mm 1 mps 732 mmHg 87%
08:00 +25°C° 0 mm 1 mps 733 mmHg 82%
09:00 +26°C° 0 mm 1 mps 733 mmHg 76%
10:00 +27°C° 0 mm 1 mps 733 mmHg 71%
11:00 +27°C° 0 mm 1 mps 733 mmHg 69%
12:00 +28°C° 0 mm 1 mps 732 mmHg 67%
13:00 +28°C° 0 mm 1 mps 732 mmHg 65%
14:00 +29°C° 0 mm 1 mps 731 mmHg 64%
15:00 +29°C° 0 mm 1 mps 731 mmHg 63%
16:00 +29°C° 0 mm 1 mps 730 mmHg 63%
17:00 +28°C° 0 mm 1 mps 730 mmHg 66%
18:00 +25°C° 0 mm 0 mps 731 mmHg 70%
19:00 +25°C° 0 mm 0 mps 731 mmHg 74%
20:00 +24°C° 0 mm 0 mps 731 mmHg 74%
21:00 +24°C° 0 mm 0 mps 732 mmHg 75%
22:00 +24°C° 0 mm 0 mps 732 mmHg 75%
23:00 +26°C° 0 mm 1 mps 732 mmHg 77%

Day after tomorrow, 12 July, Sunday

Time Temperature Precipitation Wind Pressure Humidity
00:00 +25°C° 0 mm 1 mps 732 mmHg 80%
01:00 +25°C° 0 mm 1 mps 732 mmHg 82%
02:00 +24°C° 0 mm 1 mps 732 mmHg 83%
03:00 +24°C° 0 mm 1 mps 731 mmHg 84%
04:00 +23°C° 0 mm 1 mps 731 mmHg 86%
05:00 +23°C° 0 mm 1 mps 731 mmHg 86%
06:00 +23°C° 0 mm 1 mps 732 mmHg 85%
07:00 +23°C° 0 mm 1 mps 732 mmHg 85%
08:00 +25°C° 0 mm 1 mps 733 mmHg 77%
09:00 +27°C° 0 mm 1 mps 733 mmHg 68%
10:00 +30°C° 0 mm 1 mps 733 mmHg 60%
11:00 +31°C° 0 mm 1 mps 733 mmHg 55%
12:00 +32°C° 0 mm 1 mps 732 mmHg 51%
13:00 +33°C° 0 mm 1 mps 732 mmHg 47%
14:00 +33°C° 0 mm 1 mps 731 mmHg 50%
15:00 +32°C° 0 mm 1 mps 730 mmHg 52%
16:00 +31°C° 0 mm 1 mps 730 mmHg 55%
17:00 +30°C° 0.1 mm 1 mps 730 mmHg 62%
18:00 +28°C° 0.1 mm 1 mps 731 mmHg 69%
19:00 +27°C° 0.1 mm 1 mps 731 mmHg 76%
20:00 +26°C° 0.2 mm 1 mps 731 mmHg 78%
21:00 +26°C° 0.2 mm 1 mps 732 mmHg 80%
22:00 +25°C° 0.2 mm 1 mps 732 mmHg 83%
23:00 +25°C° 0 mm 1 mps 732 mmHg 83%

13 July, Monday

Time Temperature Precipitation Wind Pressure Humidity
00:00 +24°C° 0 mm 1 mps 732 mmHg 83%
01:00 +24°C° 0 mm 1 mps 732 mmHg 84%
02:00 +23°C° 0 mm 1 mps 732 mmHg 85%
03:00 +21°C° 0 mm 0 mps 731 mmHg 87%
04:00 +20°C° 0 mm 0 mps 731 mmHg 88%
05:00 +21°C° 0 mm 0 mps 732 mmHg 88%
06:00 +21°C° 0 mm 0 mps 732 mmHg 87%
07:00 +21°C° 0 mm 0 mps 732 mmHg 87%
08:00 +25°C° 0 mm 1 mps 733 mmHg 78%
09:00 +27°C° 0 mm 1 mps 733 mmHg 68%
10:00 +29°C° 0 mm 1 mps 733 mmHg 59%
11:00 +30°C° 0 mm 1 mps 732 mmHg 55%
12:00 +32°C° 0 mm 1 mps 732 mmHg 50%
13:00 +34°C° 0 mm 2 mps 731 mmHg 46%
14:00 +34°C° 0 mm 2 mps 730 mmHg 48%
15:00 +32°C° 0 mm 2 mps 730 mmHg 49%
16:00 +32°C° 0 mm 2 mps 729 mmHg 51%
17:00 +31°C° 0 mm 1 mps 729 mmHg 56%
18:00 +30°C° 0 mm 1 mps 730 mmHg 62%
19:00 +28°C° 0 mm 1 mps 730 mmHg 68%
20:00 +27°C° 0.3 mm 1 mps 730 mmHg 70%
21:00 +27°C° 0.3 mm 1 mps 731 mmHg 73%
22:00 +26°C° 0.3 mm 1 mps 732 mmHg 76%
23:00 +26°C° 0 mm 1 mps 732 mmHg 75%

14 July, Tuesday

Time Temperature Precipitation Wind Pressure Humidity
00:00 +25°C° 0 mm 1 mps 732 mmHg 74%
01:00 +25°C° 0 mm 1 mps 732 mmHg 73%
02:00 +24°C° 0 mm 1 mps 731 mmHg 75%
03:00 +24°C° 0 mm 1 mps 731 mmHg 78%
04:00 +23°C° 0 mm 1 mps 731 mmHg 80%
05:00 +23°C° 0 mm 1 mps 731 mmHg 81%
06:00 +23°C° 0 mm 1 mps 732 mmHg 81%
07:00 +23°C° 0 mm 1 mps 732 mmHg 82%
08:00 +24°C° 0 mm 1 mps 732 mmHg 76%
09:00 +26°C° 0 mm 1 mps 733 mmHg 69%
10:00 +27°C° 0 mm 1 mps 733 mmHg 63%
11:00 +29°C° 0 mm 1 mps 732 mmHg 60%
12:00 +30°C° 0 mm 1 mps 732 mmHg 56%
13:00 +31°C° 0 mm 1 mps 731 mmHg 53%
14:00 +31°C° 0 mm 1 mps 731 mmHg 52%
15:00 +30°C° 0 mm 0 mps 730 mmHg 50%
16:00 +30°C° 0 mm 0 mps 729 mmHg 48%
17:00 +29°C° 0 mm 0 mps 729 mmHg 54%
18:00 +27°C° 0 mm 0 mps 730 mmHg 61%
19:00 +25°C° 0 mm 0 mps 730 mmHg 67%
20:00 +25°C° 0 mm 0 mps 730 mmHg 70%
21:00 +24°C° 0 mm 0 mps 731 mmHg 73%
22:00 +24°C° 0 mm 0 mps 731 mmHg 76%
23:00 +24°C° 0 mm 0 mps 731 mmHg 78%

15 July, Wednesday

Time Temperature Precipitation Wind Pressure Humidity
00:00 +24°C° 0 mm 0 mps 731 mmHg 79%
01:00 +23°C° 0 mm 0 mps 731 mmHg 80%
02:00 +23°C° 0 mm 0 mps 731 mmHg 81%
03:00 +23°C° 0 mm 0 mps 731 mmHg 82%
04:00 +22°C° 0 mm 0 mps 731 mmHg 82%
05:00 +22°C° 0 mm 0 mps 731 mmHg 82%
06:00 +22°C° 0 mm 0 mps 731 mmHg 82%
07:00 +22°C° 0 mm 0 mps 732 mmHg 82%
08:00 +23°C° 0 mm 0 mps 732 mmHg 76%
09:00 +25°C° 0 mm 0 mps 732 mmHg 70%
10:00 +26°C° 0 mm 0 mps 733 mmHg 64%
11:00 +28°C° 0 mm 0 mps 732 mmHg 58%
12:00 +32°C° 0 mm 1 mps 732 mmHg 52%
13:00 +34°C° 0 mm 1 mps 732 mmHg 46%
14:00 +33°C° 0.2 mm 1 mps 731 mmHg 50%
15:00 +32°C° 0.2 mm 1 mps 731 mmHg 54%
16:00 +31°C° 0.2 mm 2 mps 730 mmHg 58%
17:00 +29°C° 0.8 mm 1 mps 730 mmHg 66%
18:00 +28°C° 0.8 mm 1 mps 731 mmHg 74%
19:00 +26°C° 0.8 mm 1 mps 731 mmHg 82%
20:00 +26°C° 0.3 mm 1 mps 731 mmHg 84%
21:00 +25°C° 0.3 mm 1 mps 732 mmHg 86%
22:00 +23°C° 0.3 mm 0 mps 732 mmHg 87%
23:00 +23°C° 0.2 mm 0 mps 732 mmHg 89%
Show more